TimeAKST,TemperatureF,Dew PointF,Humidity,Sea Level PressureIn,VisibilityMPH,Wind Direction,Wind SpeedMPH,Gust SpeedMPH,PrecipitationIn,Events,Conditions,WindDirDegrees,DateUTC
12:53 AM,33.1,32.0,96,30.12,10.0,NNW,4.6,-,N/A,,Overcast,330,2012-11-12 09:53:00
1:12 AM,33.8,30.2,87,30.12,10.0,North,6.9,-,N/A,,Mostly Cloudy,360,2012-11-12 10:12:00
1:22 AM,32.0,30.2,93,30.12,10.0,NNW,5.8,-,N/A,,Mostly Cloudy,340,2012-11-12 10:22:00
1:53 AM,33.1,32.0,96,30.12,8.0,North,3.5,-,N/A,,Overcast,10,2012-11-12 10:53:00
2:26 AM,32.0,30.2,93,30.11,10.0,NNE,5.8,-,N/A,,Mostly Cloudy,30,2012-11-12 11:26:00
3:07 AM,30.2,30.2,100,30.10,10.0,Calm,Calm,-,N/A,,Scattered Clouds,0,2012-11-12 12:07:00
3:53 AM,30.0,28.9,96,30.10,10.0,North,3.5,-,N/A,,Clear,360,2012-11-12 12:53:00
4:53 AM,28.0,27.0,96,30.10,9.0,Calm,Calm,-,N/A,,Clear,0,2012-11-12 13:53:00
5:53 AM,27.0,26.1,96,30.09,10.0,SSW,3.5,-,N/A,,Clear,200,2012-11-12 14:53:00
6:53 AM,26.1,24.1,92,30.09,10.0,Calm,Calm,-,N/A,,Clear,0,2012-11-12 15:53:00
7:53 AM,26.1,24.1,92,30.09,10.0,Calm,Calm,-,N/A,,Clear,0,2012-11-12 16:53:00
8:22 AM,30.2,28.4,93,30.07,10.0,SE,10.4,-,N/A,,Mostly Cloudy,140,2012-11-12 17:22:00
8:53 AM,33.1,30.9,92,30.07,10.0,SE,5.8,-,N/A,,Overcast,140,2012-11-12 17:53:00
9:53 AM,35.1,33.1,92,30.04,10.0,SSE,9.2,-,N/A,,Overcast,150,2012-11-12 18:53:00
10:53 AM,36.0,33.1,89,30.01,10.0,SE,20.7,28.8,N/A,,Mostly Cloudy,140,2012-11-12 19:53:00
11:11 AM,35.6,33.8,93,30.01,10.0,SE,24.2,28.8,N/A,,Partly Cloudy,140,2012-11-12 20:11:00
11:53 AM,37.0,33.1,86,30.00,10.0,SE,27.6,38.0,N/A,,Scattered Clouds,140,2012-11-12 20:53:00
12:46 PM,37.4,33.8,87,29.98,10.0,SSE,29.9,39.1,N/A,,Mostly Cloudy,150,2012-11-12 21:46:00
12:53 PM,37.9,34.0,86,29.98,10.0,SE,29.9,39.1,N/A,,Mostly Cloudy,140,2012-11-12 21:53:00
1:13 PM,37.4,33.8,87,29.98,10.0,SSE,33.4,40.3,N/A,,Scattered Clouds,150,2012-11-12 22:13:00
1:35 PM,39.2,35.6,87,29.97,10.0,SE,33.4,40.3,N/A,,Mostly Cloudy,140,2012-11-12 22:35:00
1:53 PM,37.9,35.1,89,29.99,10.0,SSE,26.5,36.8,N/A,,Overcast,160,2012-11-12 22:53:00
2:19 PM,37.4,33.8,87,29.97,10.0,SSE,28.8,36.8,N/A,,Overcast,160,2012-11-12 23:19:00
2:33 PM,37.4,33.8,87,29.96,10.0,SSE,24.2,35.7,N/A,,Overcast,150,2012-11-12 23:33:00
2:53 PM,37.9,35.1,89,29.96,10.0,SE,26.5,35.7,N/A,,Overcast,140,2012-11-12 23:53:00
3:17 PM,37.4,35.6,93,29.95,10.0,SSE,31.1,38.0,N/A,,Overcast,150,2012-11-13 00:17:00
3:53 PM,37.9,35.1,89,29.92,10.0,SE,31.1,38.0,N/A,,Overcast,140,2012-11-13 00:53:00
4:53 PM,39.0,36.0,89,29.87,10.0,SSE,33.4,46.0,N/A,,Overcast,150,2012-11-13 01:53:00
5:18 PM,39.2,37.4,93,29.85,10.0,SSE,32.2,46.0,N/A,,Overcast,150,2012-11-13 02:18:00
5:50 PM,39.2,37.4,93,29.84,10.0,SE,28.8,38.0,N/A,,Overcast,140,2012-11-13 02:50:00
5:53 PM,39.0,37.0,93,29.84,10.0,SE,27.6,38.0,N/A,,Overcast,140,2012-11-13 02:53:00
6:23 PM,39.2,37.4,93,29.81,10.0,SE,27.6,41.4,N/A,,Overcast,140,2012-11-13 03:23:00
6:53 PM,39.9,37.0,89,29.78,10.0,SE,32.2,38.0,0.00,Rain,Light Rain,140,2012-11-13 03:53:00
7:11 PM,39.2,37.4,93,29.77,10.0,SE,33.4,44.9,0.00,Rain,Light Rain,140,2012-11-13 04:11:00
7:53 PM,41.0,37.9,89,29.75,10.0,SSE,33.4,41.4,0.01,Rain,Light Rain,150,2012-11-13 04:53:00
8:41 PM,41.0,39.2,93,29.72,5.0,SE,26.5,41.4,0.02,Rain,Light Rain,140,2012-11-13 05:41:00
8:53 PM,41.0,39.0,93,29.72,3.0,SSE,31.1,46.0,0.05,,Overcast,150,2012-11-13 05:53:00
9:16 PM,41.0,39.2,93,29.69,5.0,SSE,33.4,44.9,0.05,Rain,Light Rain,150,2012-11-13 06:16:00
9:53 PM,41.0,39.9,96,29.68,3.0,SE,35.7,46.0,0.09,,Overcast,140,2012-11-13 06:53:00
10:13 PM,41.0,39.2,93,29.67,4.0,SE,34.5,44.9,0.08,Rain,Rain,140,2012-11-13 07:13:00
10:53 PM,42.1,41.0,96,29.65,3.0,SE,38.0,47.2,0.16,,Overcast,140,2012-11-13 07:53:00
11:17 PM,42.8,41.0,93,29.63,2.5,SE,32.2,44.9,0.08,Rain,Rain,130,2012-11-13 08:17:00
11:40 PM,42.8,42.8,100,29.63,3.0,SE,32.2,42.6,0.15,Rain,Rain,140,2012-11-13 08:40:00
11:53 PM,44.1,43.0,96,29.63,4.0,SE,31.1,40.3,0.19,Rain,Rain,140,2012-11-13 08:53:00